Regional Weather Roundup
Issued by NWS

Home | Current Version | Previous Version | Graphics & Text | Print | Product List | Glossary On
Versions: 1 2 3 4 5 6 7 8 9 10 11 12 13 14 15 16 17 18 19 20 21 22 23 24 25 26 27 28 29 30 31 32 33 34 35 36 37 38 39 40 41 42 43 44 45 46 47 48
000
ASUS43 KDMX 291807
RWRIA

WEATHER ROUNDUP FOR IOWA
NATIONAL WEATHER SERVICE DES MOINES IA
100 PM CDT TUE JUL 29 2014

NOTE: "FAIR" INDICATES FEW OR NO CLOUDS BELOW 12,000 FEET WITH NO
SIGNIFICANT WEATHER AND/OR OBSTRUCTIONS TO VISIBILITY.

* - THESE STATIONS ARE NOT NWS STATIONS...THUS NOT UNDER NWS
QUALITY CONTROL.  THEY ALSO DO NOT REPORT WEATHER SUCH
AS PRECIPITATION OR FOG.

IAZ001>003-012>014-020>022-031>034-043>046-291900-
   NORTHWEST IOWA

CITY           SKY/WX    TMP DP  RH WIND       PRES   REMARKS
CARROLL *      PTSUNNY   72  55  56 N10       30.19F
CHEROKEE *     PTSUNNY   72  53  51 N10       30.20F
DENISON *      PTSUNNY   70  54  56 NW8G15    30.19S
LE MARS *      CLOUDY    73  55  53 NW9       30.21F
ORANGE CITY *  MOSUNNY   73  50  43 NW8       30.21F
SHELDON *      PTSUNNY   72  54  53 NW9       30.20S
SIOUX CITY     CLOUDY    74  55  51 NW6       30.21F
6HR MIN TEMP:  54; 6HR MAX TEMP:  75;

SPENCER        PTSUNNY   72  53  51 N7        30.19F
6HR MIN TEMP:  50; 6HR MAX TEMP:  74;

STORM LAKE *   SUNNY     70  55  60 VRB6      30.20F
$$

IAZ055>058-069>071-079>083-090>094-291900-
   SOUTHWEST IOWA

CITY           SKY/WX    TMP DP  RH WIND       PRES   REMARKS
ATLANTIC *     CLOUDY    73  55  53 NW8       30.19F
AUDUBON *      MOSUNNY   77  57  50 NW7       30.21S
CLARINDA *     PTSUNNY   75  59  57 NW6       30.20F
COUNCIL BLFS * MOSUNNY   73  61  64 N8        30.19F
CRESTON *      CLOUDY    72  55  56 NW13      30.20S
HARLAN  *      PTSUNNY   72  55  56 NW10      30.24S
LAMONI         CLOUDY    73  56  54 NW7       30.18F
6HR MIN TEMP:  57; 6HR MAX TEMP:  76;

RED OAK *      PTSUNNY   73  57  56 N8        30.20S
SHENANDOAH *   PTSUNNY   75  57  53 NW6       30.20F
$$

IAZ047>049-059>061-072>074-084-291900-
   CENTRAL IOWA

CITY           SKY/WX    TMP DP  RH WIND       PRES   REMARKS
AMES           MOSUNNY   75  56  51 NW9       30.16F
6HR MIN TEMP:  56; 6HR MAX TEMP:  76; 6HR PCP: TRACE;

ANKENY *       MOSUNNY   75  54  46 NW12      30.16F
CHARITON *     PTSUNNY   72  55  56 NW8       30.17F
DES MOINES     MOSUNNY   76  54  46 NW13      30.16F
6HR MIN TEMP:  59; 6HR MAX TEMP:  78;

GRINNELL*      MOSUNNY   73  59  60 NW6       30.16F
KNOXVILLE *    MOSUNNY   75  54  46 N8G14     30.15F
MARSHALLTOWN   MOSUNNY   75  58  55 W8        30.15F
6HR MIN TEMP:  55; 6HR MAX TEMP:  75;

PELLA *        MOSUNNY   76  57  51 NW8       30.16F
PERRY *        PTSUNNY   72  57  60 NW5       30.18F
$$

IAZ004>006-015-016-023>025-035-036-291900-
   NORTH CENTRAL IOWA

CITY           SKY/WX    TMP DP  RH WIND       PRES   REMARKS
ALGONA *       MOSUNNY   73  55  53 N9        30.18F
CLARION *      PTSUNNY   75  57  53 NW10      30.17F
ESTHERVILLE    MOSUNNY   72  54  53 N8        30.18F
6HR MIN TEMP:  54; 6HR MAX TEMP:  73;

FORT DODGE *   PTSUNNY   72  55  56 N3        30.19S
MASON CITY     MOSUNNY   75  57  53 NW12      30.17F
6HR MIN TEMP:  55; 6HR MAX TEMP:  75;

FOREST CITY *  PTSUNNY   72  54  53 NE16G23   30.16F
IOWA FALLS *   PTSUNNY   72  57  60 NW7       30.17F
$$

IAZ007>011-017>019-026>030-037>042-050>054-066-291900-
   NORTHEAST IOWA

CITY           SKY/WX    TMP DP  RH WIND       PRES   REMARKS
CEDAR RAPIDS   MOSUNNY   76  53  44 W14G20    30.12F
6HR MIN TEMP:  54; 6HR MAX TEMP:  76;

CHARLES CITY * MOSUNNY   75  57  53 NW9G16    30.15S
CLINTON *      MOSUNNY   75  57  53 NW8G17    30.11F
DECORAH *      MOSUNNY   73  57  56 N7G16     30.10F
DUBUQUE        MOSUNNY   75  57  53 N8        30.10F
6HR MIN TEMP:  55; 6HR MAX TEMP:  75;

MONTICELLO *   MOSUNNY   75  59  57 W10       30.10F
OELWEIN *      MOSUNNY   75  59  57 NW8       30.13F
WATERLOO       PTSUNNY   75  58  55 VRB7      30.12F
6HR MIN TEMP:  56; 6HR MAX TEMP:  77;

$$

IAZ064-065-067-068-078-291900-
   EAST CENTRAL IOWA

CITY           SKY/WX    TMP DP  RH WIND       PRES   REMARKS
DAVENPORT      SUNNY     76  57  51 NW10      30.10F
6HR MIN TEMP:  53; 6HR MAX TEMP:  76;

IOWA CITY      MOSUNNY   77  57  50 NW12G18   30.13F
6HR MIN TEMP:  57; 6HR MAX TEMP:  77;

MT. PLEASANT * MOSUNNY   76  53  43 NW5       30.14S
MUSCATINE *    MOSUNNY   77  55  47 NW9       30.12S
$$

IAZ062-063-075>077-085>089-095>099-291900-
   SOUTHEAST IOWA

CITY           SKY/WX    TMP DP  RH WIND       PRES   REMARKS
BURLINGTON     PTSUNNY   76  58  53 NW8       30.13S
6HR MIN TEMP:  57; 6HR MAX TEMP:  77;

FAIRFIELD *    MOSUNNY   75  59  57 NW9       30.15S
FORT MADISON * MOSUNNY   75  57  53 W7        30.15S
KEOKUK *       PTSUNNY   73  57  56 NW8G15    30.14S
OSKALOOSA *      N/A     74  59  59 NW12      30.15F
CENTERVILLE *  SUNNY     73  55  53 NW5       30.18F
OTTUMWA        MOSUNNY   76  58  53 NW13      30.15F
6HR MIN TEMP:  57; 6HR MAX TEMP:  76;

WASHINGTON *   MOSUNNY   77  59  53 NW9G16    30.13F
$$

ABBREVIATIONS USED IN REMARKS
   TC - TEMPERATURES IN CELSIUS
  WCI - WIND CHILL INDEX
   HX - HEAT INDEX
  VSB - VISIBILITY
$$




USA.gov is the U.S. government's official web portal to all federal, state and local government web resources and services.